GW2454 Weather Reports


time (UTC)temp
C
wind
direction
speed
KPH
gust
KPH
rain 1hr
cm
rain 24hr
cm
rain mn
cm
humidity
%
barometer
mb
20260509234620 30 71 0.0 1.6 0.00 0.00 0.00 72 1005.0
20260509234118 30 65 1.6 1.6 0.00 0.00 0.00 71 1004.9
20260509233615 30 73 0.0 1.6 0.00 0.00 0.00 72 1005.1
20260509233112 30 72 0.0 0.0 0.00 0.00 0.00 71 1005.0
20260509232608 30 73 0.0 0.0 0.00 0.00 0.00 71 1004.9
20260509232106 30 73 0.0 0.0 0.00 0.00 0.00 71 1004.9
20260509231602 30 73 0.0 0.0 0.00 0.00 0.00 68 1005.2
20260509231100 30 76 1.6 1.6 0.00 0.00 0.00 67 1004.9
20260509230556 30 64 3.2 3.2 0.00 0.00 0.00 67 1005.0
20260509230054 30 72 1.6 1.6 0.00 0.00 0.00 69 1004.9
20260509225549 30 65 0.0 1.6 0.00 0.00 0.00 68 1004.7
20260509225044 30 63 1.6 1.6 0.00 0.00 0.00 67 1004.6
20260509224540 30 89 3.2 3.2 0.00 0.00 0.00 67 1004.9
20260509224037 31 64 1.6 1.6 0.00 0.00 0.00 66 1005.2
20260509223534 31 74 4.8 4.8 0.00 0.00 0.00 64 1004.8
20260509223032 31 172 0.0 1.6 0.00 0.00 0.00 63 1004.8
20260509222528 31 134 0.0 0.0 0.00 0.00 0.00 64 1004.8
20260509222024 32 127 0.0 1.6 0.00 0.00 0.00 63 1004.8
20260509221520 32 79 0.0 0.0 0.00 0.00 0.00 64 1004.6
20260509221016 31 219 1.6 3.2 0.00 0.00 0.00 64 1004.7
20260509220512 31 216 3.2 3.2 0.00 0.00 0.00 64 1004.8
20260509220009 31 205 1.6 3.2 0.00 0.00 0.00 64 1004.6
20260509215504 31 71 1.6 1.6 0.00 0.00 0.00 63 1004.6
20260509215001 31 122 0.0 0.0 0.00 0.00 0.00 63 1004.6
20260509214458 31 206 1.6 1.6 0.00 0.00 0.00 63 1004.9
20260509213955 32 109 0.0 1.6 0.00 0.00 0.00 63 1004.6
20260509213451 31 94 0.0 0.0 0.00 0.00 0.00 63 1004.9
20260509212948 31 74 3.2 3.2 0.00 0.00 0.00 64 1004.6
20260509212446 32 75 0.0 0.0 0.00 0.00 0.00 62 1004.6
20260509211942 32 56 1.6 1.6 0.00 0.00 0.00 61 1004.8
20260509211437 -17 0.0 0.0 0.00 0.00 0.00 1004.7
20260509210934 -17 0.0 0.0 0.00 0.00 0.00 1004.8
20260509210431 -17 0.0 0.0 0.00 0.00 0.00 1005.0
20260509205926 -17 0.0 0.0 0.00 0.00 0.00 1005.0
20260509205421 33 194 1.6 1.6 0.00 0.00 0.00 60 1005.1
20260509204917 33 194 1.6 1.6 0.00 0.00 0.00 60 1005.1
20260509204414 33 313 3.2 3.2 0.00 0.00 0.00 59 1005.2
20260509203911 33 37 3.2 3.2 0.00 0.00 0.00 61 1005.1
20260509203407 32 74 1.6 1.6 0.00 0.00 0.00 62 1005.3
20260509202904 32 218 4.8 4.8 0.00 0.00 0.00 64 1005.4
20260509202400 31 252 1.6 1.6 0.00 0.00 0.00 63 1005.3
20260509201855 31 252 1.6 1.6 0.00 0.00 0.00 63 1005.4
20260509201350 -17 0.0 0.0 0.00 0.00 0.00 1005.5
20260509200848 -17 0.0 0.0 0.00 0.00 0.00 1005.8
20260509200342 32 226 4.8 8.0 0.00 0.00 0.00 64 1005.8
20260509195840 32 226 4.8 8.0 0.00 0.00 0.00 64 1005.8
20260509195340 32 223 1.6 1.6 0.00 0.00 0.00 66 1005.6
20260509194839 31 199 0.0 1.6 0.00 0.00 0.00 66 1005.9
20260509194336 31 208 3.2 3.2 0.00 0.00 0.00 68 1006.0
20260509193832 31 166 0.0 1.6 0.00 0.00 0.00 69 1006.1
20260509193327 30 287 1.6 1.6 0.00 0.00 0.00 71 1005.9
20260509192823 30 287 1.6 1.6 0.00 0.00 0.00 71 1005.9
20260509192319 31 220 1.6 3.2 0.00 0.00 0.00 70 1005.9
20260509191815 31 158 1.6 1.6 0.00 0.00 0.00 70 1006.4
20260509191311 31 192 1.6 1.6 0.00 0.00 0.00 71 1006.4
20260509190806 30 221 3.2 3.2 0.00 0.00 0.00 71 1006.3
20260509190304 30 217 0.0 1.6 0.00 0.00 0.00 73 1006.3
20260509185801 30 198 1.6 1.6 0.00 0.00 0.00 73 1006.6
20260509185257 29 337 0.0 0.0 0.00 0.00 0.00 74 1006.4
20260509184755 30 193 1.6 1.6 0.00 0.00 0.00 73 1006.5
20260509184252 30 244 1.6 3.2 0.00 0.00 0.00 73 1006.7
20260509183748 30 145 1.6 1.6 0.00 0.00 0.00 73 1006.8
20260509183244 29 235 1.6 1.6 0.00 0.00 0.00 73 1006.9
20260509182739 30 222 1.6 1.6 0.00 0.00 0.00 72 1006.9
20260509182237 29 343 3.2 3.2 0.00 0.00 0.00 72 1006.9
20260509181734 29 249 1.6 1.6 0.00 0.00 0.00 72 1007.0
20260509181232 29 215 3.2 3.2 0.00 0.00 0.00 74 1007.0
20260509180729 29 252 4.8 4.8 0.00 0.00 0.00 74 1007.0
20260509180225 29 218 1.6 1.6 0.00 0.00 0.00 73 1007.3
20260509175721 29 205 6.4 8.0 0.00 0.00 0.00 72 1007.2
20260509175218 29 198 1.6 1.6 0.00 0.00 0.00 74 1007.4
20260509174714 29 284 1.6 3.2 0.00 0.00 0.00 74 1007.3
20260509174209 30 258 3.2 3.2 0.00 0.00 0.00 72 1007.5
20260509173706 29 268 1.6 3.2 0.00 0.00 0.00 74 1007.5
20260509173201 29 347 0.0 1.6 0.00 0.00 0.00 75 1007.5
20260509172658 30 331 3.2 4.8 0.00 0.00 0.00 72 1007.6
20260509172154 29 155 0.0 1.6 0.00 0.00 0.00 74 1007.6
20260509171650 29 203 3.2 3.2 0.00 0.00 0.00 76 1007.5
20260509171146 28 332 0.0 1.6 0.00 0.00 0.00 78 1007.3
20260509170643 28 334 3.2 8.0 0.00 0.00 0.00 78 1007.1
20260509170139 28 136 0.0 1.6 0.00 0.00 0.00 80 1007.2
20260509165637 27 182 3.2 3.2 0.00 0.00 0.00 80 1007.1
20260509165133 28 185 4.8 4.8 0.00 0.00 0.00 80 1007.1
20260509164629 28 212 1.6 1.6 0.00 0.00 0.00 81 1007.1
20260509164125 27 214 4.8 4.8 0.00 0.00 0.00 81 1007.2
20260509163623 26 65 0.0 1.6 0.00 0.00 0.00 84 1007.3
20260509163118 26 65 0.0 1.6 0.00 0.00 0.00 84 1007.4
20260509162616 26 64 0.0 0.0 0.00 0.00 0.00 84 1007.6
20260509162112 26 64 0.0 0.0 0.00 0.00 0.00 84 1007.6
20260509161608 26 60 0.0 1.6 0.00 0.00 0.00 84 1007.5
20260509161109 26 210 1.6 1.6 0.00 0.00 0.00 85 1007.6
20260509160605 26 213 1.6 1.6 0.00 0.00 0.00 85 1007.4
20260509160100 26 225 1.6 1.6 0.00 0.00 0.00 85 1007.6
20260509155557 26 211 0.0 1.6 0.00 0.00 0.00 86 1007.8
20260509155053 26 222 1.6 1.6 0.00 0.00 0.00 86 1007.9
20260509154549 26 215 0.0 0.0 0.00 0.00 0.00 87 1007.8
20260509154047 26 222 0.0 1.6 0.00 0.00 0.00 87 1007.7
20260509153543 26 225 1.6 1.6 0.00 0.00 0.00 87 1008.0
20260509153040 26 121 0.0 0.0 0.00 0.00 0.00 89 1008.1
20260509152536 25 211 1.6 1.6 0.00 0.00 0.00 90 1007.9
20260509152034 25 278 0.0 0.0 0.00 0.00 0.00 91 1008.0
20260509151530 25 126 0.0 0.0 0.00 0.00 0.00 91 1007.9
20260509151028 25 139 0.0 0.0 0.00 0.00 0.00 93 1007.9
20260509150525 25 186 1.6 1.6 0.00 0.00 0.00 93 1007.8
20260509150023 25 51 0.0 1.6 0.00 0.00 0.00 94 1007.6
20260509145518 25 62 0.0 0.0 0.00 0.00 0.00 94 1007.5
20260509145013 25 102 0.0 0.0 0.00 0.00 0.00 95 1007.6
20260509144511 25 161 0.0 0.0 0.00 0.00 0.00 95 1007.7
20260509144008 24 105 0.0 0.0 0.00 0.00 0.00 95 1007.4
20260509143505 24 111 1.6 1.6 0.00 0.00 0.00 95 1007.2
20260509143003 24 104 0.0 0.0 0.00 0.00 0.00 96 1007.3
20260509142458 24 84 0.0 0.0 0.00 0.00 0.00 96 1007.2
20260509141953 23 71 0.0 0.0 0.00 0.00 0.00 96 1007.1
20260509141450 23 83 0.0 0.0 0.00 0.00 0.00 96 1007.2
20260509140947 23 117 0.0 0.0 0.00 0.00 0.00 96 1007.2
20260509140443 23 94 0.0 0.0 0.00 0.00 0.00 96 1006.8
20260509135942 23 122 0.0 0.0 0.00 0.00 0.00 96 1007.1
20260509135439 23 158 0.0 0.0 0.00 0.00 0.00 96 1007.1
20260509134936 23 60 0.0 0.0 0.00 0.00 0.00 96 1007.1
20260509134434 23 70 0.0 0.0 0.00 0.00 0.00 96 1007.3
20260509133931 23 72 0.0 0.0 0.00 0.00 0.00 97 1007.3
20260509133427 23 71 0.0 1.6 0.00 0.00 0.00 96 1007.6
20260509132926 23 101 0.0 0.0 0.00 0.00 0.00 97 1007.7
20260509132423 23 90 1.6 1.6 0.00 0.00 0.00 97 1007.5
20260509131920 23 220 0.0 0.0 0.00 0.00 0.00 97 1007.7
20260509131418 23 185 1.6 1.6 0.00 0.00 0.00 97 1007.7
20260509130914 23 135 0.0 0.0 0.00 0.00 0.00 97 1007.9
20260509130409 23 189 0.0 0.0 0.00 0.00 0.00 97 1008.1
20260509125906 23 212 0.0 0.0 0.00 0.00 0.00 97 1007.4
20260509125403 23 150 0.0 0.0 0.00 0.00 0.00 97 1007.5
20260509124859 23 144 0.0 0.0 0.00 0.00 0.00 97 1007.6
20260509124356 -17 0.0 0.0 0.00 0.00 0.00 1007.7
20260509123854 -17 0.0 0.0 0.00 0.00 0.00 1007.7
20260509123351 -17 0.0 0.0 0.00 0.00 0.00 1007.7
20260509122847 -17 0.0 0.0 0.00 0.00 0.00 1007.6
20260509122344 -17 0.0 0.0 0.00 0.00 0.00 1007.7
20260509121840 -17 0.0 0.0 0.00 0.00 0.00 1007.6
20260509121337 -17 0.0 0.0 0.00 0.00 0.00 1007.4
20260509120836 -17 0.0 0.0 0.00 0.00 0.00 1007.4
20260509120333 -17 0.0 0.0 0.00 0.00 0.00 1006.9
20260509115831 -17 0.0 0.0 0.00 0.00 0.00 1006.8
20260509115328 -17 0.0 0.0 0.00 0.00 0.00 1006.5
20260509114826 -17 0.0 0.0 0.00 0.00 0.00 1007.0
20260509114325 -17 0.0 0.0 0.00 0.00 0.00 1007.0
20260509113824 -17 0.0 0.0 0.00 0.00 0.00 1007.1
20260509113320 -17 0.0 0.0 0.00 0.00 0.00 1006.9
20260509112816 -17 0.0 0.0 0.00 0.00 0.00 1006.8
20260509112314 -17 0.0 0.0 0.00 0.00 0.00 1006.8
20260509111811 -17 0.0 0.0 0.00 0.00 0.00 1007.0
20260509111308 -17 0.0 0.0 0.00 0.00 0.00 1007.0
20260509110805 -17 0.0 0.0 0.00 0.00 0.00 1007.5
20260509110301 -17 0.0 0.0 0.00 0.00 0.00 1007.4
20260509105800 -17 0.0 0.0 0.00 0.00 0.00 1007.4
20260509105258 -17 0.0 0.0 0.00 0.00 0.00 1007.3
20260509104754 -17 0.0 0.0 0.00 0.00 0.00 1007.2
20260509104250 -17 0.0 0.0 0.00 0.00 0.00 1007.5
20260509103749 -17 0.0 0.0 0.00 0.00 0.00 1007.3
20260509103246 -17 0.0 0.0 0.00 0.00 0.00 1007.5
20260509102744 -17 0.0 0.0 0.00 0.00 0.00 1007.2
20260509102241 -17 0.0 0.0 0.00 0.00 0.00 1007.0
20260509101737 -17 0.0 0.0 0.00 0.00 0.00 1007.2
20260509101233 -17 0.0 0.0 0.00 0.00 0.00 1006.8
20260509100731 -17 0.0 0.0 0.00 0.00 0.00 1006.4
20260509100228 -17 0.0 0.0 0.00 0.00 0.00 1006.2
20260509095724 -17 0.0 0.0 0.00 0.00 0.00 1006.2
20260509095222 -17 0.0 0.0 0.00 0.00 0.00 1006.4
20260509094719 -17 0.0 0.0 0.00 0.00 0.00 1006.3
20260509094216 -17 0.0 0.0 0.00 0.00 0.00 1006.3
20260509093714 -17 0.0 0.0 0.00 0.00 0.00 1006.5
20260509093211 -17 0.0 0.0 0.00 0.00 0.00 1006.4
20260509092709 -17 0.0 0.0 0.00 0.00 0.00 1006.7
20260509092207 -17 0.0 0.0 0.00 0.00 0.00 1006.7
20260509091705 -17 0.0 0.0 0.00 0.00 0.00 1006.9
20260509091200 -17 0.0 0.0 0.00 0.00 0.00 1006.9
20260509090658 -17 0.0 0.0 0.00 0.00 0.00 1007.0
20260509090155 -17 0.0 0.0 0.00 0.00 0.00 1006.8
20260509085653 -17 0.0 0.0 0.00 0.00 0.00 1007.0
20260509085149 -17 0.0 0.0 0.00 0.00 0.00 1007.0
20260509084646 -17 0.0 0.0 0.00 0.00 0.00 1007.4
20260509084143 -17 0.0 0.0 0.00 0.00 0.00 1007.1
20260509083641 -17 0.0 0.0 0.00 0.00 0.00 1006.9
20260509083137 -17 0.0 0.0 0.00 0.00 0.00 1006.9
20260509082634 -17 0.0 0.0 0.00 0.00 0.00 1007.1
20260509082131 -17 0.0 0.0 0.00 0.00 0.00 1007.1
20260509081628 -17 0.0 0.0 0.00 0.00 0.00 1006.9
20260509081125 -17 0.0 0.0 0.00 0.00 0.00 1006.8
20260509080623 -17 0.0 0.0 0.00 0.00 0.00 1006.7
20260509080121 -17 0.0 0.0 0.00 0.00 0.00 1006.9
20260509075619 -17 0.0 0.0 0.00 0.00 0.00 1006.6
20260509075116 -17 0.0 0.0 0.00 0.00 0.00 1006.8
20260509074613 -17 0.0 0.0 0.00 0.00 0.00 1006.7
20260509074109 -17 0.0 0.0 0.00 0.00 0.00 1006.6
20260509073606 -17 0.0 0.0 0.00 0.00 0.00 1006.8
20260509073102 -17 0.0 0.0 0.00 0.00 0.00 1006.8
20260509072559 -17 0.0 0.0 0.00 0.00 0.00 1006.9
20260509072056 -17 0.0 0.0 0.00 0.00 0.00 1006.9
20260509071553 -17 0.0 0.0 0.00 0.00 0.00 1006.9
20260509071050 -17 0.0 0.0 0.00 0.00 0.00 1006.7
20260509070547 -17 0.0 0.0 0.00 0.00 0.00 1006.8
20260509070038 -17 0.0 0.0 0.00 0.00 0.00 1006.8
20260509065533 -17 0.0 0.0 0.00 0.00 0.00 1006.8
20260509065030 -17 0.0 0.0 0.00 0.00 0.00 1007.1
20260509064527 -17 0.0 0.0 0.00 0.00 0.00 1007.2
20260509064025 -17 0.0 0.0 0.00 0.00 0.00 1007.1
20260509063520 -17 0.0 0.0 0.00 0.00 0.00 1007.1
20260509063018 -17 0.0 0.0 0.00 0.00 0.00 1007.0
20260509062515 -17 0.0 0.0 0.00 0.00 0.00 1007.1
20260509062012 -17 0.0 0.0 0.00 0.00 0.00 1007.2
20260509061509 -17 0.0 0.0 0.00 0.00 0.00 1007.5
20260509061007 -17 0.0 0.0 0.00 0.00 0.00 1007.6
20260509060504 -17 0.0 0.0 0.00 0.00 0.00 1007.5
20260509055959 -17 0.0 0.0 0.00 0.00 0.00 1007.4
20260509055455 -17 0.0 0.0 0.00 0.00 0.00 1007.4
20260509054951 -17 0.0 0.0 0.00 0.00 0.00 1007.6
20260509054448 -17 0.0 0.0 0.00 0.00 0.00 1007.4
20260509053946 -17 0.0 0.0 0.00 0.00 0.00 1007.4
20260509053444 -17 0.0 0.0 0.00 0.00 0.00 1007.4
20260509052941 -17 0.0 0.0 0.00 0.00 0.00 1007.5
20260509052439 -17 0.0 0.0 0.00 0.00 0.00 1007.4
20260509051936 -17 0.0 0.0 0.00 0.00 0.00 1007.3
20260509051434 -17 0.0 0.0 0.00 0.00 0.00 1007.4
20260509050931 -17 0.0 0.0 0.00 0.00 0.00 1007.5
20260509050427 -17 0.0 0.0 0.00 0.00 0.00 1007.4
20260509045924 -17 0.0 0.0 0.00 0.00 0.00 1007.6
20260509045421 -17 0.0 0.0 0.00 0.00 0.00 1007.3
20260509044918 -17 0.0 0.0 0.00 0.00 0.00 1007.6
20260509044416 -17 0.0 0.0 0.00 0.00 0.00 1007.6
20260509043913 -17 0.0 0.0 0.00 0.00 0.00 1007.7
20260509043408 -17 0.0 0.0 0.00 0.00 0.00 1007.7
20260509042904 -17 0.0 0.0 0.00 0.00 0.00 1007.5
20260509042402 -17 0.0 0.0 0.00 0.00 0.00 1007.5
20260509041858 -17 0.0 0.0 0.00 0.00 0.00 1007.5
20260509041354 22 72 1.6 1.6 0.00 0.00 0.00 95 1007.6
20260509040853 22 72 1.6 1.6 0.00 0.00 0.00 95 1007.4
20260509040351 22 122 1.6 3.2 0.00 0.00 0.00 95 1007.5
20260509035847 22 122 1.6 3.2 0.00 0.00 0.00 95 1007.5
20260509035344 -17 0.0 0.0 0.00 0.00 0.00 1007.3
20260509034840 -17 0.0 0.0 0.00 0.00 0.00 1007.2
20260509034338 -17 0.0 0.0 0.00 0.00 0.00 1007.2
20260509033835 -17 0.0 0.0 0.00 0.00 0.00 1007.3
20260509033332 22 202 1.6 1.6 0.00 0.00 0.00 95 1007.4
20260509032829 22 202 1.6 1.6 0.00 0.00 0.00 95 1007.2
20260509032326 -17 0.0 0.0 0.00 0.00 0.00 1007.3
20260509031824 -17 0.0 0.0 0.00 0.00 0.00 1007.5
20260509031321 22 160 3.2 3.2 0.00 0.00 0.00 95 1007.4
20260509030819 22 160 3.2 3.2 0.00 0.00 0.00 95 1007.1
20260509030316 22 174 1.6 1.6 0.00 0.00 0.00 95 1007.0
20260509025813 22 174 1.6 1.6 0.00 0.00 0.00 95 1007.2
20260509025308 22 132 1.6 1.6 0.00 0.00 0.00 95 1006.9
20260509024804 22 75 0.0 0.0 0.00 0.00 0.00 94 1006.9
20260509024300 22 144 0.0 0.0 0.00 0.00 0.00 94 1006.8
20260509023757 22 144 0.0 0.0 0.00 0.00 0.00 94 1006.7
20260509023255 22 192 1.6 3.2 0.00 0.00 0.00 94 1006.8
20260509022750 22 192 1.6 3.2 0.00 0.00 0.00 94 1006.8
20260509022249 22 234 4.8 4.8 0.00 0.00 0.00 94 1006.3
20260509021745 22 119 0.0 0.0 0.00 0.00 0.00 94 1006.5
20260509021242 22 119 0.0 0.0 0.00 0.00 0.00 94 1006.4
20260509020740 22 116 1.6 1.6 0.00 0.00 0.00 94 1006.8
20260509020238 22 135 1.6 1.6 0.00 0.00 0.00 94 1006.6
20260509015735 22 91 0.0 0.0 0.00 0.00 0.00 94 1006.6
20260509015234 22 89 1.6 1.6 0.00 0.00 0.00 94 1006.5
20260509014729 22 90 0.0 1.6 0.00 0.00 0.00 94 1006.5
20260509014227 22 154 1.6 3.2 0.00 0.00 0.00 93 1006.4
20260509013723 22 116 1.6 1.6 0.00 0.00 0.00 93 1006.3
20260509013219 22 60 3.2 3.2 0.00 0.00 0.00 93 1006.8
20260509012716 22 111 1.6 1.6 0.00 0.00 0.00 93 1006.8
20260509012212 22 114 0.0 0.0 0.00 0.00 0.00 93 1006.7
20260509011710 22 219 3.2 4.8 0.00 0.00 0.00 93 1006.6
20260509011208 22 216 3.2 3.2 0.00 0.00 0.00 93 1006.4
20260509010705 22 57 3.2 3.2 0.00 0.00 0.00 93 1006.3
20260509010201 22 123 1.6 1.6 0.00 0.00 0.00 93 1006.3
20260509005659 22 59 1.6 1.6 0.00 0.00 0.00 93 1006.3
20260509005156 22 91 1.6 3.2 0.00 0.00 0.00 93 1006.0
20260509004651 23 151 1.6 3.2 0.00 0.00 0.00 93 1006.1
20260509004148 23 141 0.0 1.6 0.00 0.00 0.00 92 1006.1
20260509003647 23 65 1.6 1.6 0.00 0.00 0.00 92 1006.0
20260509003144 23 152 8.0 9.7 0.00 0.00 0.00 92 1006.0
20260509002641 23 136 1.6 1.6 0.00 0.00 0.00 92 1006.5
20260509002138 23 106 1.6 3.2 0.00 0.00 0.00 91 1006.5
20260509001636 23 162 0.0 1.6 0.00 0.00 0.00 91 1006.5
20260509001131 23 180 1.6 3.2 0.00 0.00 0.00 90 1006.8
20260509000630 23 117 1.6 1.6 0.00 0.00 0.00 90 1006.6
20260509000126 23 159 4.8 8.0 0.00 0.00 0.00 90 1006.4
20260508235624 23 97 3.2 3.2 0.00 0.00 0.00 89 1006.4
20260508235120 23 209 4.8 8.0 0.00 0.00 0.00 88 1006.5